QFA918 YMML-YBSU

Flight info

Callsign QFA918
Flight time 1h 56m
Altitude 37000
Route NONIX H66 IDNER/N0387F190 W214 GOMOL/N0465F360 Q69 ITIDE
Aircraft B738/M-SDE2E3FGHIRWXY/LB1D1

Departure

Time 2026-05-04 15:07
Airport Melbourne Airport (YMML)

Arrival

Time 2026-05-04 17:03
Airport Sunshine Coast Airport (YBSU)
Time Latitude Longitude Altitude Speed Heading
2026-05-04 14:45 -37.66680 144.84898 400 ft 0 kts 82°
2026-05-04 14:57 -37.66680 144.84897 400 ft 2 kts 82°
2026-05-04 14:57 -37.66684 144.84865 400 ft 3 kts 82°
2026-05-04 14:58 -37.66685 144.84837 400 ft 4 kts 102°
2026-05-04 14:58 -37.66674 144.84811 395 ft 4 kts 149°
2026-05-04 14:58 -37.66649 144.84799 400 ft 4 kts 168°
2026-05-04 14:58 -37.66624 144.84793 399 ft 4 kts 177°
2026-05-04 14:59 -37.66598 144.84796 401 ft 4 kts 200°
2026-05-04 14:59 -37.66575 144.84809 403 ft 4 kts 214°
2026-05-04 14:59 -37.66547 144.84863 405 ft 4 kts 261°
2026-05-04 15:00 -37.66543 144.84891 405 ft 3 kts 261°
2026-05-04 15:00 -37.66543 144.84895 405 ft 2 kts 261°
2026-05-04 15:03 -37.66543 144.84891 405 ft 1 kts 262°
2026-05-04 15:03 -37.66546 144.84863 405 ft 5 kts 262°
2026-05-04 15:04 -37.66546 144.84812 401 ft 6 kts 292°
2026-05-04 15:04 -37.66507 144.84786 406 ft 6 kts 345°
2026-05-04 15:04 -37.66464 144.84775 408 ft 6 kts 359°
2026-05-04 15:04 -37.66418 144.84779 408 ft 7 kts
2026-05-04 15:05 -37.66370 144.84784 410 ft 7 kts
2026-05-04 15:05 -37.66318 144.84789 411 ft 8 kts
2026-05-04 15:05 -37.66252 144.84788 412 ft 12 kts 338°
2026-05-04 15:05 -37.66216 144.84641 412 ft 34 kts 274°
2026-05-04 15:06 -37.66176 144.83994 412 ft 113 kts 275°
2026-05-04 15:06 -37.66101 144.82698 418 ft 180 kts 274°
2026-05-04 15:06 -37.66045 144.80997 948 ft 202 kts 279°
2026-05-04 15:07 -37.65730 144.77197 2173 ft 234 kts 283°
2026-05-04 15:07 -37.65596 144.75126 3003 ft 231 kts 281°
2026-05-04 15:07 -37.65515 144.73175 4057 ft 220 kts 281°
2026-05-04 15:07 -37.65412 144.71160 4459 ft 240 kts 282°
2026-05-04 15:08 -37.65297 144.69018 5174 ft 246 kts 282°
2026-05-04 15:08 -37.64857 144.67003 6042 ft 234 kts 307°
2026-05-04 15:08 -37.63777 144.65499 6850 ft 232 kts 323°
2026-05-04 15:08 -37.62378 144.64500 7565 ft 237 kts 338°
2026-05-04 15:09 -37.60812 144.63873 8315 ft 241 kts 341°
2026-05-04 15:09 -37.59181 144.63280 9003 ft 248 kts 341°
2026-05-04 15:09 -37.57531 144.62677 9765 ft 251 kts 340°
2026-05-04 15:10 -37.53872 144.62865 10523 ft 303 kts 20°
2026-05-04 15:10 -37.52130 144.64590 10703 ft 340 kts 43°
2026-05-04 15:10 -37.49158 144.69568 11643 ft 364 kts 48°
2026-05-04 15:11 -37.47665 144.72121 12564 ft 360 kts 47°
2026-05-04 15:11 -37.46072 144.74559 13189 ft 364 kts 41°
2026-05-04 15:11 -37.44319 144.76893 13781 ft 368 kts 39°
2026-05-04 15:11 -37.42515 144.79201 14408 ft 371 kts 39°
2026-05-04 15:12 -37.40701 144.81515 15061 ft 373 kts 39°
2026-05-04 15:12 -37.38875 144.83860 15677 ft 377 kts 39°
2026-05-04 15:12 -37.37037 144.86240 16283 ft 381 kts 40°
2026-05-04 15:12 -37.35202 144.88631 16868 ft 384 kts 40°
2026-05-04 15:13 -37.33344 144.91063 17499 ft 387 kts 40°
2026-05-04 15:13 -37.31477 144.93509 18104 ft 390 kts 40°
2026-05-04 15:13 -37.29594 144.95978 18604 ft 394 kts 40°
2026-05-04 15:13 -37.27697 144.98464 19129 ft 396 kts 40°
2026-05-04 15:14 -37.25790 145.00963 19662 ft 398 kts 39°
2026-05-04 15:14 -37.23867 145.03482 20187 ft 401 kts 39°
2026-05-04 15:14 -37.21929 145.06017 20699 ft 403 kts 39°
2026-05-04 15:14 -37.20012 145.08521 21192 ft 406 kts 39°
2026-05-04 15:15 -37.18050 145.11082 21675 ft 408 kts 39°
2026-05-04 15:15 -37.16073 145.13662 22156 ft 411 kts 39°
2026-05-04 15:15 -37.14096 145.16239 22648 ft 413 kts 39°
2026-05-04 15:16 -37.10084 145.21465 23558 ft 418 kts 39°
2026-05-04 15:16 -37.08057 145.24099 23917 ft 420 kts 39°
2026-05-04 15:16 -37.03739 145.29009 24651 ft 419 kts 32°
2026-05-04 15:17 -37.01472 145.31298 25036 ft 419 kts 31°
2026-05-04 15:17 -36.96882 145.35878 25737 ft 424 kts 32°
2026-05-04 15:17 -36.94581 145.38198 26078 ft 426 kts 32°
2026-05-04 15:18 -36.92278 145.40541 26395 ft 429 kts 32°
2026-05-04 15:18 -36.89962 145.42911 26697 ft 431 kts 32°
2026-05-04 15:18 -36.87631 145.45304 26987 ft 434 kts 32°
2026-05-04 15:19 -36.82957 145.50112 27633 ft 437 kts 32°
2026-05-04 15:19 -36.80608 145.52527 27926 ft 439 kts 32°
2026-05-04 15:19 -36.75899 145.57361 28485 ft 443 kts 32°
2026-05-04 15:20 -36.73512 145.59807 28748 ft 445 kts 32°
2026-05-04 15:20 -36.71114 145.62261 29035 ft 447 kts 32°
2026-05-04 15:20 -36.68708 145.64724 29322 ft 449 kts 32°
2026-05-04 15:20 -36.66289 145.67197 29615 ft 450 kts 32°
2026-05-04 15:21 -36.63874 145.69665 30003 ft 449 kts 32°
2026-05-04 15:21 -36.61463 145.72129 30368 ft 447 kts 32°
2026-05-04 15:21 -36.56650 145.77035 30873 ft 448 kts 32°
2026-05-04 15:22 -36.54240 145.79488 31132 ft 448 kts 32°
2026-05-04 15:22 -36.51835 145.81935 31496 ft 445 kts 32°
2026-05-04 15:22 -36.47052 145.86795 32051 ft 445 kts 31°
2026-05-04 15:23 -36.44644 145.89237 32225 ft 447 kts 31°
2026-05-04 15:23 -36.42222 145.91689 32466 ft 447 kts 31°
2026-05-04 15:23 -36.39816 145.94127 32774 ft 446 kts 31°
2026-05-04 15:23 -36.36321 145.97665 33186 ft 446 kts 31°
2026-05-04 15:24 -36.17234 146.16908 34954 ft 444 kts 31°
2026-05-04 15:24 -35.97875 146.36293 35849 ft 448 kts 31°
2026-05-04 15:25 -35.88195 146.45931 36301 ft 455 kts 31°
2026-05-04 15:25 -35.78254 146.55800 36689 ft 462 kts 31°
2026-05-04 15:25 -35.73817 146.60200 36872 ft 464 kts 31°
2026-05-04 15:26 -35.68770 146.65196 37088 ft 466 kts 31°
2026-05-04 15:26 -35.61173 146.72701 37091 ft 465 kts 31°
2026-05-04 15:27 -35.53621 146.80141 37093 ft 463 kts 31°
2026-05-04 15:28 -35.46112 146.87519 37090 ft 460 kts 30°
2026-05-04 15:29 -35.38599 146.94874 37109 ft 460 kts 30°
2026-05-04 15:30 -35.20977 147.12057 37106 ft 467 kts 30°
2026-05-04 15:31 -35.13328 147.19489 37105 ft 470 kts 30°
2026-05-04 15:32 -35.00507 147.31907 37102 ft 472 kts 30°
2026-05-04 15:34 -34.87631 147.44327 37112 ft 472 kts 30°
2026-05-04 15:34 -34.79922 147.51738 37102 ft 470 kts 30°
2026-05-04 15:35 -34.72263 147.59082 37113 ft 468 kts 30°
2026-05-04 15:36 -34.64597 147.66414 37103 ft 467 kts 30°
2026-05-04 15:36 -34.59500 147.71280 37123 ft 466 kts 30°
2026-05-04 15:37 -34.54403 147.76137 37114 ft 466 kts 30°
2026-05-04 15:37 -34.49303 147.80989 37117 ft 466 kts 29°
2026-05-04 15:38 -34.44195 147.85842 37117 ft 467 kts 29°
2026-05-04 15:38 -34.39084 147.90689 37131 ft 467 kts 29°
2026-05-04 15:39 -34.33962 147.95539 37095 ft 468 kts 29°
2026-05-04 15:40 -34.27132 148.01995 37124 ft 468 kts 29°
2026-05-04 15:40 -34.21969 148.06866 37127 ft 469 kts 29°
2026-05-04 15:41 -34.16812 148.11724 37156 ft 471 kts 29°
2026-05-04 15:41 -34.11621 148.16604 37135 ft 473 kts 29°
2026-05-04 15:42 -34.06417 148.21491 37123 ft 475 kts 29°
2026-05-04 15:42 -34.01231 148.26354 37126 ft 476 kts 29°
2026-05-04 15:43 -33.96000 148.31250 37132 ft 477 kts 29°
2026-05-04 15:43 -33.90752 148.36156 37129 ft 477 kts 29°
2026-05-04 15:44 -33.85504 148.41053 37139 ft 477 kts 29°
2026-05-04 15:44 -33.80255 148.45943 37122 ft 477 kts 28°
2026-05-04 15:45 -33.75018 148.50815 37119 ft 476 kts 29°
2026-05-04 15:45 -33.69780 148.55679 37130 ft 475 kts 29°
2026-05-04 15:46 -33.64553 148.60525 37095 ft 474 kts 28°
2026-05-04 15:46 -33.59343 148.65348 37128 ft 473 kts 28°
2026-05-04 15:47 -33.54171 148.70127 37135 ft 472 kts 28°
2026-05-04 15:47 -33.48981 148.74916 37141 ft 471 kts 28°
2026-05-04 15:48 -33.43790 148.79699 37139 ft 470 kts 28°
2026-05-04 15:48 -33.36013 148.86849 37147 ft 470 kts 28°
2026-05-04 15:49 -33.30812 148.91621 37148 ft 471 kts 28°
2026-05-04 15:49 -33.25622 148.96377 37141 ft 471 kts 28°
2026-05-04 15:50 -33.20412 149.01143 37151 ft 471 kts 28°
2026-05-04 15:50 -33.15200 149.05905 37141 ft 472 kts 28°
2026-05-04 15:51 -33.09981 149.10665 37130 ft 472 kts 27°
2026-05-04 15:51 -33.04762 149.15419 37143 ft 472 kts 27°
2026-05-04 15:52 -32.99536 149.20171 37150 ft 472 kts 27°
2026-05-04 15:52 -32.94309 149.24917 37141 ft 473 kts 27°
2026-05-04 15:53 -32.89075 149.29663 37146 ft 472 kts 27°
2026-05-04 15:53 -32.83873 149.34372 37133 ft 473 kts 27°
2026-05-04 15:54 -32.78628 149.39112 37131 ft 473 kts 27°
2026-05-04 15:54 -32.73380 149.43849 37101 ft 473 kts 26°
2026-05-04 15:55 -32.68132 149.48580 37124 ft 473 kts 26°
2026-05-04 15:55 -32.62883 149.53304 37123 ft 474 kts 26°
2026-05-04 15:56 -32.57630 149.58025 37120 ft 474 kts 26°
2026-05-04 15:56 -32.52344 149.62655 37116 ft 470 kts 24°
2026-05-04 15:57 -32.46996 149.67120 37122 ft 469 kts 23°
2026-05-04 15:57 -32.41680 149.71542 37115 ft 470 kts 23°
2026-05-04 15:58 -32.36346 149.76003 37125 ft 470 kts 23°
2026-05-04 15:58 -32.31008 149.80478 37112 ft 470 kts 22°
2026-05-04 15:59 -32.25704 149.84919 37119 ft 470 kts 22°
2026-05-04 15:59 -32.20362 149.89384 37111 ft 470 kts 22°
2026-05-04 16:00 -32.15011 149.93850 37119 ft 471 kts 22°
2026-05-04 16:00 -32.09660 149.98308 37121 ft 471 kts 22°
2026-05-04 16:01 -32.04304 150.02765 37112 ft 471 kts 22°
2026-05-04 16:01 -31.98950 150.07215 37119 ft 471 kts 22°
2026-05-04 16:02 -31.93598 150.11656 37116 ft 470 kts 21°
2026-05-04 16:03 -31.85559 150.18314 37110 ft 471 kts 21°
2026-05-04 16:03 -31.80223 150.22725 37109 ft 473 kts 21°
2026-05-04 16:04 -31.74833 150.27172 37095 ft 473 kts 21°
2026-05-04 16:04 -31.66730 150.33837 37113 ft 474 kts 21°
2026-05-04 16:05 -31.61321 150.38279 37107 ft 475 kts 21°
2026-05-04 16:06 -31.53205 150.44947 37100 ft 475 kts 20°
2026-05-04 16:07 -31.42396 150.53815 37108 ft 473 kts 20°
2026-05-04 16:08 -31.31602 150.62642 37123 ft 473 kts 20°
2026-05-04 16:09 -31.18084 150.73664 37129 ft 475 kts 20°
2026-05-04 16:10 -31.07252 150.82471 37130 ft 474 kts 20°
2026-05-04 16:11 -30.99533 150.90132 37139 ft 491 kts 28°
2026-05-04 16:11 -30.97021 150.92830 37119 ft 492 kts 28°
2026-05-04 16:12 -30.81775 151.08812 37111 ft 494 kts 27°
2026-05-04 16:13 -30.71527 151.19413 37113 ft 491 kts 27°
2026-05-04 16:14 -30.61383 151.29883 37139 ft 484 kts 27°
2026-05-04 16:16 -30.48857 151.42760 37134 ft 479 kts 27°
2026-05-04 16:17 -30.36363 151.55560 37114 ft 481 kts 27°
2026-05-04 16:18 -30.26285 151.65852 37135 ft 484 kts 28°
2026-05-04 16:19 -30.13625 151.78751 37153 ft 489 kts 28°
2026-05-04 16:20 -30.00826 151.91752 37152 ft 491 kts 28°
2026-05-04 16:22 -29.87984 152.04750 37146 ft 491 kts 28°
2026-05-04 16:23 -29.72565 152.20271 37142 ft 488 kts 28°
2026-05-04 16:25 -29.57293 152.35551 37137 ft 487 kts 28°
2026-05-04 16:26 -29.39316 152.53469 37102 ft 490 kts 28°
2026-05-04 16:28 -29.27301 152.65399 37095 ft 489 kts 28°
2026-05-04 16:29 -29.09337 152.83197 37086 ft 486 kts 29°
2026-05-04 16:31 -28.96633 152.95780 37098 ft 484 kts 29°
2026-05-04 16:32 -28.80764 153.09324 37094 ft 464 kts 16°
2026-05-04 16:33 -28.69419 153.16532 37095 ft 470 kts 17°
2026-05-04 16:34 -28.60867 153.22070 37085 ft 473 kts 17°
2026-05-04 16:35 -28.43627 153.33214 37073 ft 476 kts 17°
2026-05-04 16:36 -28.35036 153.38750 37076 ft 475 kts 17°
2026-05-04 16:37 -28.26431 153.44283 37069 ft 473 kts 17°
2026-05-04 16:38 -28.14741 153.50106 37079 ft 437 kts 356°
2026-05-04 16:39 -28.05912 153.50335 37081 ft 420 kts 347°
2026-05-04 16:39 -28.00067 153.50226 37073 ft 421 kts 347°
2026-05-04 16:40 -27.94142 153.50140 36414 ft 428 kts 348°
2026-05-04 16:40 -27.88184 153.50077 35178 ft 428 kts 348°
2026-05-04 16:41 -27.82235 153.50014 33809 ft 432 kts 348°
2026-05-04 16:41 -27.73162 153.49915 31621 ft 437 kts 350°
2026-05-04 16:42 -27.63968 153.49815 29155 ft 444 kts 352°
2026-05-04 16:43 -27.57780 153.49751 27399 ft 448 kts 352°
2026-05-04 16:43 -27.51573 153.49689 26057 ft 441 kts 353°
2026-05-04 16:43 -27.48479 153.49663 25039 ft 448 kts 353°
2026-05-04 16:44 -27.36186 153.49590 21936 ft 430 kts 354°
2026-05-04 16:45 -27.30491 153.49557 21490 ft 391 kts 354°
2026-05-04 16:46 -27.22853 153.49502 20667 ft 352 kts 353°
2026-05-04 16:46 -27.17975 153.49439 19485 ft 349 kts 354°
2026-05-04 16:47 -27.13162 153.49378 18503 ft 341 kts 354°
2026-05-04 16:47 -27.08465 153.49321 17391 ft 335 kts 354°
2026-05-04 16:48 -27.01547 153.49237 15736 ft 328 kts 355°
2026-05-04 16:48 -26.99274 153.49209 15219 ft 325 kts 355°
2026-05-04 16:49 -26.94795 153.49155 14074 ft 320 kts 356°
2026-05-04 16:49 -26.90380 153.49103 13049 ft 313 kts 356°
2026-05-04 16:50 -26.85992 153.49071 12140 ft 316 kts 357°
2026-05-04 16:50 -26.81641 153.49048 11415 ft 313 kts 357°
2026-05-04 16:51 -26.77300 153.49023 10707 ft 311 kts 357°
2026-05-04 16:51 -26.75155 153.49009 10528 ft 303 kts 356°
2026-05-04 16:51 -26.71354 153.47587 10185 ft 283 kts 327°
2026-05-04 16:52 -26.68109 153.45263 9774 ft 274 kts 326°
2026-05-04 16:52 -26.66513 153.44111 9485 ft 272 kts 326°
2026-05-04 16:53 -26.63339 153.41842 8912 ft 269 kts 326°
2026-05-04 16:53 -26.58618 153.38497 8066 ft 266 kts 327°
2026-05-04 16:54 -26.57054 153.37393 7787 ft 265 kts 327°
2026-05-04 16:55 -26.50830 153.33006 6644 ft 265 kts 328°
2026-05-04 16:55 -26.47705 153.30808 6058 ft 265 kts 328°
2026-05-04 16:56 -26.45683 153.27559 5505 ft 263 kts 278°
2026-05-04 16:56 -26.45144 153.21692 5052 ft 245 kts 274°
2026-05-04 16:57 -26.44978 153.19829 4936 ft 237 kts 274°
2026-05-04 16:57 -26.44646 153.16298 4711 ft 220 kts 275°
2026-05-04 16:58 -26.44197 153.11324 4053 ft 214 kts 266°
2026-05-04 16:58 -26.44505 153.09708 3796 ft 213 kts 251°
2026-05-04 16:59 -26.45262 153.06515 3247 ft 208 kts 253°
2026-05-04 17:00 -26.48751 153.02122 2071 ft 178 kts 191°
2026-05-04 17:00 -26.51963 153.02307 1606 ft 145 kts 158°
2026-05-04 17:01 -26.53674 153.03473 1230 ft 148 kts 145°
2026-05-04 17:01 -26.55323 153.04886 840 ft 149 kts 143°
2026-05-04 17:02 -26.56951 153.06307 377 ft 148 kts 144°
2026-05-04 17:02 -26.58581 153.07688 37 ft 145 kts 144°
2026-05-04 17:03 -26.59316 153.08318 20 ft 117 kts 142°
2026-05-04 17:03 -26.59499 153.08473 23 ft 105 kts 143°
2026-05-04 17:03 -26.60060 153.08924 21 ft 17 kts 185°
2026-05-04 17:04 -26.60241 153.08867 21 ft 16 kts 142°
2026-05-04 17:04 -26.60409 153.09012 20 ft 15 kts 142°
2026-05-04 17:05 -26.60581 153.09057 20 ft 13 kts 195°
2026-05-04 17:05 -26.60681 153.09014 22 ft 6 kts 261°
2026-05-04 17:06 -26.60661 153.08944 20 ft 0 kts 283°
2026-05-04 17:07 -26.60643 153.08932 20 ft 0 kts 283°